Time,TemperatureF,DewpointF,PressureIn,WindDirection,WindDirectionDegrees,WindSpeedMPH,WindSpeedGustMPH,Humidity,HourlyPrecipIn,Conditions,Clouds,dailyrainin,SoftwareType,DateUTC
2013-02-21 00:03:00,42.1,35.1,29.56,North,0,0.0,0.0,76,0.00,RA,,0.00,WeatherDisplay:10.37,2013-02-21 06:03:00,
2013-02-21 00:08:00,42.1,35.1,29.55,North,0,0.0,0.0,76,0.00,RA,,0.00,WeatherDisplay:10.37,2013-02-21 06:08:00,
2013-02-21 00:13:00,42.3,34.9,29.55,North,0,0.0,0.0,75,0.00,OVC,,0.00,WeatherDisplay:10.37,2013-02-21 06:13:00,
2013-02-21 00:18:00,42.3,34.9,29.55,North,0,0.0,0.0,75,0.00,OVC,,0.00,WeatherDisplay:10.37,2013-02-21 06:18:00,
2013-02-21 00:23:00,42.4,35.1,29.55,North,0,0.0,0.0,75,0.00,OVC,,0.00,WeatherDisplay:10.37,2013-02-21 06:23:00,
2013-02-21 00:28:00,42.4,35.1,29.54,North,0,0.0,0.0,75,0.00,OVC,,0.00,WeatherDisplay:10.37,2013-02-21 06:28:00,
2013-02-21 00:33:00,42.4,34.7,29.54,North,0,0.0,0.0,74,0.00,OVC,,0.00,WeatherDisplay:10.37,2013-02-21 06:33:00,
2013-02-21 00:39:00,42.6,34.9,29.54,North,0,0.0,0.0,74,0.00,OVC,,0.00,WeatherDisplay:10.37,2013-02-21 06:39:00,
2013-02-21 00:44:00,42.6,34.9,29.54,North,0,0.0,0.0,74,0.00,OVC,,0.00,WeatherDisplay:10.37,2013-02-21 06:44:00,
2013-02-21 00:49:00,42.6,34.9,29.54,North,0,0.0,0.0,74,0.00,OVC,,0.00,WeatherDisplay:10.37,2013-02-21 06:49:00,
2013-02-21 00:54:00,42.8,35.1,29.53,North,0,0.0,0.0,74,0.00,OVC,,0.00,WeatherDisplay:10.37,2013-02-21 06:54:00,
2013-02-21 00:59:00,42.8,35.1,29.53,North,0,0.0,0.0,74,0.00,OVC,,0.00,WeatherDisplay:10.37,2013-02-21 06:59:00,
2013-02-21 01:04:00,42.8,35.1,29.53,North,0,0.0,0.0,74,0.00,OVC,,0.00,WeatherDisplay:10.37,2013-02-21 07:04:00,
2013-02-21 01:09:00,43.0,35.3,29.52,North,0,0.0,0.0,74,0.00,OVC,,0.00,WeatherDisplay:10.37,2013-02-21 07:09:00,
2013-02-21 01:14:00,43.0,35.3,29.52,North,0,0.0,0.0,74,0.00,OVC,,0.00,WeatherDisplay:10.37,2013-02-21 07:14:00,
2013-02-21 01:19:00,43.2,35.1,29.53,North,0,0.0,0.0,73,0.00,OVC,,0.00,WeatherDisplay:10.37,2013-02-21 07:19:00,
2013-02-21 01:24:00,43.3,35.3,29.53,North,0,0.0,0.0,73,0.00,OVC,,0.00,WeatherDisplay:10.37,2013-02-21 07:24:00,
2013-02-21 01:29:00,43.3,35.3,29.53,North,0,0.0,0.0,73,0.00,OVC,,0.00,WeatherDisplay:10.37,2013-02-21 07:29:00,
2013-02-21 01:34:00,43.5,35.4,29.53,North,0,0.0,0.0,73,0.00,OVC,,0.00,WeatherDisplay:10.37,2013-02-21 07:34:00,
2013-02-21 01:39:00,43.5,35.4,29.52,North,0,0.0,0.0,73,0.00,OVC,,0.00,WeatherDisplay:10.37,2013-02-21 07:39:00,
2013-02-21 01:44:00,43.5,35.8,29.52,North,0,0.0,0.0,74,0.00,OVC,,0.00,WeatherDisplay:10.37,2013-02-21 07:44:00,
2013-02-21 01:49:00,43.7,36.0,29.52,North,0,0.0,0.0,74,0.00,OVC,,0.00,WeatherDisplay:10.37,2013-02-21 07:49:00,
2013-02-21 01:54:00,43.9,36.1,29.52,North,0,0.0,0.0,74,0.00,OVC,,0.00,WeatherDisplay:10.37,2013-02-21 07:54:00,
2013-02-21 01:59:00,44.1,36.3,29.52,North,0,0.0,0.0,74,0.00,OVC,,0.00,WeatherDisplay:10.37,2013-02-21 07:59:00,
2013-02-21 02:04:00,44.1,36.3,29.52,North,0,0.0,0.0,74,0.00,OVC,,0.00,WeatherDisplay:10.37,2013-02-21 08:04:00,
2013-02-21 02:09:00,43.9,36.1,29.51,North,0,0.0,0.0,74,0.00,OVC,,0.00,WeatherDisplay:10.37,2013-02-21 08:09:00,
2013-02-21 02:14:00,43.7,36.0,29.50,North,0,0.0,0.0,74,0.00,OVC,,0.00,WeatherDisplay:10.37,2013-02-21 08:14:00,
2013-02-21 02:19:00,43.9,36.1,29.51,North,0,0.0,0.0,74,0.00,OVC,,0.00,WeatherDisplay:10.37,2013-02-21 08:19:00,
2013-02-21 02:24:00,44.2,36.5,29.51,North,0,0.0,0.0,74,0.00,OVC,,0.00,WeatherDisplay:10.37,2013-02-21 08:24:00,
2013-02-21 02:29:00,44.4,36.6,29.51,North,0,0.0,0.0,74,0.00,OVC,,0.00,WeatherDisplay:10.37,2013-02-21 08:29:00,
2013-02-21 02:34:00,44.6,36.5,29.51,North,0,0.0,0.0,73,0.00,OVC,,0.00,WeatherDisplay:10.37,2013-02-21 08:34:00,
2013-02-21 02:39:00,44.6,36.5,29.51,North,0,0.0,0.0,73,0.00,OVC,,0.00,WeatherDisplay:10.37,2013-02-21 08:39:00,
2013-02-21 02:44:00,44.8,36.7,29.51,North,0,0.0,0.0,73,0.00,OVC,,0.00,WeatherDisplay:10.37,2013-02-21 08:44:00,
2013-02-21 02:49:00,45.0,36.5,29.52,North,0,0.0,0.0,72,0.00,OVC,,0.00,WeatherDisplay:10.37,2013-02-21 08:49:00,
2013-02-21 02:54:00,45.0,36.5,29.52,North,0,0.0,0.0,72,0.00,OVC,,0.00,WeatherDisplay:10.37,2013-02-21 08:54:00,
2013-02-21 02:59:00,45.1,36.6,29.51,North,0,0.0,0.0,72,0.00,OVC,,0.00,WeatherDisplay:10.37,2013-02-21 08:59:00,
2013-02-21 03:04:00,45.3,36.5,29.51,North,0,0.0,0.0,71,0.00,OVC,,0.00,WeatherDisplay:10.37,2013-02-21 09:04:00,
2013-02-21 03:09:00,45.3,36.8,29.52,North,0,0.0,0.0,72,0.00,OVC,,0.00,WeatherDisplay:10.37,2013-02-21 09:09:00,
2013-02-21 03:14:00,45.0,36.8,29.51,North,0,0.0,0.0,73,0.00,OVC,,0.00,WeatherDisplay:10.37,2013-02-21 09:14:00,
2013-02-21 03:19:00,44.8,37.0,29.51,North,0,0.0,0.0,74,0.01,RA,,0.01,WeatherDisplay:10.37,2013-02-21 09:19:00,
2013-02-21 03:24:00,44.6,37.2,29.50,North,0,0.0,0.0,75,0.01,RA,,0.01,WeatherDisplay:10.37,2013-02-21 09:24:00,
2013-02-21 03:29:00,44.4,37.0,29.50,North,0,0.0,0.0,75,0.01,OVC,,0.01,WeatherDisplay:10.37,2013-02-21 09:29:00,
2013-02-21 03:34:00,44.6,37.2,29.50,North,0,0.0,0.0,75,0.01,OVC,,0.01,WeatherDisplay:10.37,2013-02-21 09:34:00,
2013-02-21 03:39:00,44.4,37.3,29.49,North,0,0.0,0.0,76,0.01,OVC,,0.01,WeatherDisplay:10.37,2013-02-21 09:39:00,
2013-02-21 03:44:00,44.4,37.3,29.49,North,0,0.0,0.0,76,0.01,OVC,,0.01,WeatherDisplay:10.37,2013-02-21 09:44:00,
2013-02-21 03:49:00,44.2,37.5,29.48,North,0,0.0,0.0,77,0.01,OVC,,0.01,WeatherDisplay:10.37,2013-02-21 09:49:00,
2013-02-21 03:54:00,44.2,37.5,29.48,North,0,0.0,0.0,77,0.01,OVC,,0.01,WeatherDisplay:10.37,2013-02-21 09:54:00,
2013-02-21 03:59:00,44.1,37.6,29.47,North,0,0.0,0.0,78,0.01,OVC,,0.01,WeatherDisplay:10.37,2013-02-21 09:59:00,
2013-02-21 04:04:00,44.1,37.6,29.46,North,0,0.0,0.0,78,0.02,RA,,0.02,WeatherDisplay:10.37,2013-02-21 10:04:00,
2013-02-21 04:09:00,44.1,37.6,29.46,North,0,0.0,0.0,78,0.02,RA,,0.02,WeatherDisplay:10.37,2013-02-21 10:09:00,
2013-02-21 04:14:00,44.1,37.6,29.46,North,0,0.0,0.0,78,0.02,OVC,,0.02,WeatherDisplay:10.37,2013-02-21 10:14:00,
2013-02-21 04:19:00,44.1,37.6,29.45,North,0,0.0,0.0,78,0.01,OVC,,0.02,WeatherDisplay:10.37,2013-02-21 10:19:00,
2013-02-21 04:24:00,44.1,37.6,29.45,North,0,0.0,0.0,78,0.01,OVC,,0.02,WeatherDisplay:10.37,2013-02-21 10:24:00,
2013-02-21 04:29:00,43.9,37.5,29.44,North,0,0.0,0.0,78,0.01,OVC,,0.02,WeatherDisplay:10.37,2013-02-21 10:29:00,
2013-02-21 04:34:00,43.9,37.5,29.45,North,0,0.0,0.0,78,0.01,OVC,,0.02,WeatherDisplay:10.37,2013-02-21 10:34:00,
2013-02-21 04:39:00,43.9,37.8,29.44,North,0,0.0,0.0,79,0.01,OVC,,0.02,WeatherDisplay:10.37,2013-02-21 10:39:00,
2013-02-21 04:44:00,43.9,37.5,29.44,North,0,0.0,0.0,78,0.01,OVC,,0.02,WeatherDisplay:10.37,2013-02-21 10:44:00,
2013-02-21 04:49:00,44.1,37.6,29.45,North,0,0.0,0.0,78,0.01,OVC,,0.02,WeatherDisplay:10.37,2013-02-21 10:49:00,
2013-02-21 04:54:00,44.1,37.6,29.44,North,0,0.0,0.0,78,0.01,OVC,,0.02,WeatherDisplay:10.37,2013-02-21 10:54:00,
2013-02-21 04:59:00,44.1,37.6,29.45,North,0,0.0,0.0,78,0.01,OVC,,0.02,WeatherDisplay:10.37,2013-02-21 10:59:00,
2013-02-21 05:04:00,44.1,38.0,29.44,North,0,0.0,0.0,79,0.00,OVC,,0.02,WeatherDisplay:10.37,2013-02-21 11:04:00,
2013-02-21 05:09:00,44.1,37.6,29.44,North,0,0.0,0.0,78,0.00,OVC,,0.02,WeatherDisplay:10.37,2013-02-21 11:09:00,
2013-02-21 05:14:00,44.1,38.0,29.44,North,0,0.0,0.0,79,0.00,OVC,,0.02,WeatherDisplay:10.37,2013-02-21 11:14:00,
2013-02-21 05:19:00,44.1,38.0,29.44,North,0,0.0,0.0,79,0.00,OVC,,0.02,WeatherDisplay:10.37,2013-02-21 11:19:00,
2013-02-21 05:24:00,44.1,38.0,29.43,North,0,0.0,0.0,79,0.00,OVC,,0.02,WeatherDisplay:10.37,2013-02-21 11:24:00,
2013-02-21 05:29:00,44.2,38.1,29.43,North,0,0.0,0.0,79,0.00,OVC,,0.02,WeatherDisplay:10.37,2013-02-21 11:29:00,
2013-02-21 05:34:00,44.1,38.0,29.43,North,0,0.0,0.0,79,0.00,OVC,,0.02,WeatherDisplay:10.37,2013-02-21 11:34:00,
2013-02-21 05:39:00,44.2,38.1,29.43,North,0,0.0,0.0,79,0.00,OVC,,0.02,WeatherDisplay:10.37,2013-02-21 11:39:00,
2013-02-21 05:44:00,44.2,38.1,29.42,North,0,0.0,0.0,79,0.00,OVC,,0.02,WeatherDisplay:10.37,2013-02-21 11:44:00,
2013-02-21 05:49:00,44.2,38.1,29.43,North,0,0.0,0.0,79,0.00,OVC,,0.02,WeatherDisplay:10.37,2013-02-21 11:49:00,
2013-02-21 05:54:00,44.2,38.5,29.43,North,0,0.0,0.0,80,0.00,OVC,,0.02,WeatherDisplay:10.37,2013-02-21 11:54:00,
2013-02-21 05:59:00,44.1,38.3,29.43,North,0,0.0,0.0,80,0.00,OVC,,0.02,WeatherDisplay:10.37,2013-02-21 11:59:00,
2013-02-21 06:04:00,44.1,38.6,29.42,North,0,0.0,0.0,81,0.00,OVC,,0.02,WeatherDisplay:10.37,2013-02-21 12:04:00,
2013-02-21 06:09:00,44.1,38.6,29.42,North,0,0.0,0.0,81,0.00,OVC,,0.02,WeatherDisplay:10.37,2013-02-21 12:09:00,
2013-02-21 06:14:00,44.1,38.6,29.41,North,0,0.0,0.0,81,0.00,OVC,,0.02,WeatherDisplay:10.37,2013-02-21 12:14:00,
2013-02-21 06:20:00,44.1,38.9,29.40,North,0,0.0,0.0,82,0.00,OVC,,0.02,WeatherDisplay:10.37,2013-02-21 12:20:00,
2013-02-21 06:25:00,44.1,39.2,29.39,North,0,0.0,0.0,83,0.00,OVC,,0.02,WeatherDisplay:10.37,2013-02-21 12:25:00,
2013-02-21 06:30:00,43.9,39.1,29.39,North,0,0.0,0.0,83,0.00,OVC,,0.02,WeatherDisplay:10.37,2013-02-21 12:30:00,
2013-02-21 06:35:00,44.1,39.2,29.38,North,0,0.0,0.0,83,0.01,RA,,0.03,WeatherDisplay:10.37,2013-02-21 12:35:00,
2013-02-21 06:40:00,43.9,39.4,29.39,North,0,0.0,0.0,84,0.01,RA,,0.03,WeatherDisplay:10.37,2013-02-21 12:40:00,
2013-02-21 06:45:00,43.9,39.4,29.39,North,0,0.0,0.0,84,0.01,OVC,,0.03,WeatherDisplay:10.37,2013-02-21 12:45:00,
2013-02-21 06:50:00,43.9,39.7,29.39,North,0,0.0,0.0,85,0.01,OVC,,0.03,WeatherDisplay:10.37,2013-02-21 12:50:00,
2013-02-21 06:55:00,43.9,39.7,29.39,North,0,0.0,0.0,85,0.01,OVC,,0.03,WeatherDisplay:10.37,2013-02-21 12:55:00,
2013-02-21 07:00:00,44.1,39.8,29.39,North,0,0.0,0.0,85,0.01,OVC,,0.03,WeatherDisplay:10.37,2013-02-21 13:00:00,
2013-02-21 07:05:00,44.1,39.8,29.39,North,0,0.0,0.0,85,0.01,-RA,,0.03,WeatherDisplay:10.37,2013-02-21 13:05:00,
2013-02-21 07:10:00,44.2,40.0,29.38,North,0,0.0,0.0,85,0.01,-RA,,0.03,WeatherDisplay:10.37,2013-02-21 13:10:00,
2013-02-21 07:15:00,44.4,40.2,29.38,North,0,0.0,0.0,85,0.01,-RA,,0.03,WeatherDisplay:10.37,2013-02-21 13:15:00,
2013-02-21 07:20:00,44.6,40.7,29.38,North,0,0.0,0.0,86,0.01,-RA,,0.03,WeatherDisplay:10.37,2013-02-21 13:20:00,
2013-02-21 07:25:00,44.8,40.8,29.39,North,0,0.0,0.0,86,0.01,-RA,,0.03,WeatherDisplay:10.37,2013-02-21 13:25:00,
2013-02-21 07:30:00,45.0,41.0,29.38,North,0,0.0,0.0,86,0.01,-RA,,0.03,WeatherDisplay:10.37,2013-02-21 13:30:00,
2013-02-21 07:35:00,45.0,41.0,29.38,North,0,0.0,0.0,86,0.00,-RA,,0.03,WeatherDisplay:10.37,2013-02-21 13:35:00,
2013-02-21 07:40:00,45.1,41.5,29.36,North,0,0.0,0.0,87,0.00,-RA,,0.03,WeatherDisplay:10.37,2013-02-21 13:40:00,
2013-02-21 07:45:00,45.3,41.7,29.37,North,0,0.0,0.0,87,0.00,-RA,,0.03,WeatherDisplay:10.37,2013-02-21 13:45:00,
2013-02-21 07:50:00,45.3,41.7,29.36,North,0,0.0,0.0,87,0.00,-RA,,0.03,WeatherDisplay:10.37,2013-02-21 13:50:00,
2013-02-21 07:55:00,45.3,42.0,29.37,North,0,0.0,0.0,88,0.00,-RA,,0.03,WeatherDisplay:10.37,2013-02-21 13:55:00,
2013-02-21 08:00:00,45.7,42.3,29.37,North,0,0.0,0.0,88,0.00,-RA,,0.03,WeatherDisplay:10.37,2013-02-21 14:00:00,
2013-02-21 08:05:00,45.7,42.3,29.37,North,0,0.0,0.0,88,0.00,OVC,,0.03,WeatherDisplay:10.37,2013-02-21 14:05:00,
2013-02-21 08:10:00,45.9,42.5,29.37,North,0,0.0,0.0,88,0.00,OVC,,0.03,WeatherDisplay:10.37,2013-02-21 14:10:00,
2013-02-21 08:15:00,46.0,42.7,29.38,North,0,0.0,0.0,88,0.00,OVC,,0.03,WeatherDisplay:10.37,2013-02-21 14:15:00,
2013-02-21 08:20:00,46.2,42.9,29.38,North,0,0.0,0.0,88,0.00,OVC,,0.03,WeatherDisplay:10.37,2013-02-21 14:20:00,
2013-02-21 08:25:00,46.4,43.0,29.38,North,0,0.0,0.0,88,0.00,OVC,,0.03,WeatherDisplay:10.37,2013-02-21 14:25:00,
2013-02-21 08:30:00,46.4,43.0,29.38,North,0,0.0,0.0,88,0.00,OVC,,0.03,WeatherDisplay:10.37,2013-02-21 14:30:00,
2013-02-21 08:35:00,46.6,43.2,29.39,North,0,0.0,0.0,88,0.00,OVC,,0.03,WeatherDisplay:10.37,2013-02-21 14:35:00,
2013-02-21 08:40:00,46.8,43.7,29.40,North,0,0.0,0.0,89,0.00,OVC,,0.03,WeatherDisplay:10.37,2013-02-21 14:40:00,
2013-02-21 08:45:00,46.8,43.4,29.40,North,0,0.0,0.0,88,0.00,OVC,,0.03,WeatherDisplay:10.37,2013-02-21 14:45:00,
2013-02-21 08:50:00,47.1,44.0,29.41,North,0,0.0,0.0,89,0.00,OVC,,0.03,WeatherDisplay:10.37,2013-02-21 14:50:00,
2013-02-21 08:55:00,47.3,44.2,29.48,North,0,0.0,0.0,89,0.00,OVC,,0.03,WeatherDisplay:10.37,2013-02-21 14:55:00,
2013-02-21 09:00:00,47.5,44.4,29.48,North,0,0.0,0.0,89,0.00,OVC,,0.03,WeatherDisplay:10.37,2013-02-21 15:00:00,
2013-02-21 09:05:00,47.5,44.4,29.50,North,0,0.0,0.0,89,0.00,OVC,,0.03,WeatherDisplay:10.37,2013-02-21 15:05:00,
2013-02-21 09:10:00,47.3,44.2,29.49,North,0,0.0,0.0,89,0.00,OVC,,0.03,WeatherDisplay:10.37,2013-02-21 15:10:00,
2013-02-21 09:15:00,47.3,44.2,29.51,North,0,0.0,0.0,89,0.00,OVC,,0.03,WeatherDisplay:10.37,2013-02-21 15:15:00,
2013-02-21 09:20:00,47.1,44.3,29.50,North,0,0.0,0.0,90,0.06,RA,,0.09,WeatherDisplay:10.37,2013-02-21 15:20:00,
2013-02-21 09:25:00,46.8,44.0,29.50,North,0,0.0,0.0,90,0.15,RA,,0.17,WeatherDisplay:10.37,2013-02-21 15:25:00,
2013-02-21 09:30:00,46.8,44.3,29.49,North,0,0.0,0.0,91,0.19,RA,,0.22,WeatherDisplay:10.37,2013-02-21 15:30:00,
2013-02-21 09:35:00,46.8,44.3,29.49,North,0,0.0,0.0,91,0.19,RA,,0.22,WeatherDisplay:10.37,2013-02-21 15:35:00,
2013-02-21 09:41:00,46.9,44.7,29.49,North,0,0.0,0.0,92,0.19,OVC,,0.22,WeatherDisplay:10.37,2013-02-21 15:41:00,
2013-02-21 09:46:00,46.9,44.7,29.48,North,0,0.0,0.0,92,0.19,OVC,,0.22,WeatherDisplay:10.37,2013-02-21 15:46:00,
2013-02-21 09:51:00,46.9,44.7,29.48,North,0,0.0,0.0,92,0.19,OVC,,0.22,WeatherDisplay:10.37,2013-02-21 15:51:00,
2013-02-21 09:56:00,47.1,44.9,29.48,North,0,0.0,0.0,92,0.19,OVC,,0.22,WeatherDisplay:10.37,2013-02-21 15:56:00,
2013-02-21 10:01:00,47.1,44.6,29.48,North,0,0.0,0.0,91,0.19,OVC,,0.22,WeatherDisplay:10.37,2013-02-21 16:01:00,
2013-02-21 10:06:00,47.1,44.6,29.48,North,0,0.0,0.0,91,0.19,OVC,,0.22,WeatherDisplay:10.37,2013-02-21 16:06:00,
2013-02-21 10:11:00,46.9,44.4,29.48,North,0,0.0,0.0,91,0.19,OVC,,0.22,WeatherDisplay:10.37,2013-02-21 16:11:00,
2013-02-21 10:16:00,46.9,44.4,29.46,North,0,0.0,0.0,91,0.19,OVC,,0.22,WeatherDisplay:10.37,2013-02-21 16:16:00,
2013-02-21 10:21:00,47.1,44.6,29.46,North,0,0.0,0.0,91,0.10,OVC,,0.22,WeatherDisplay:10.37,2013-02-21 16:21:00,
2013-02-21 10:26:00,47.5,45.0,29.46,North,0,0.0,0.0,91,0.03,OVC,,0.22,WeatherDisplay:10.37,2013-02-21 16:26:00,
2013-02-21 10:31:00,47.7,45.2,29.45,North,0,0.0,0.0,91,0.00,OVC,,0.22,WeatherDisplay:10.37,2013-02-21 16:31:00,
2013-02-21 10:36:00,48.2,45.7,29.46,North,0,0.0,0.0,91,0.00,OVC,,0.22,WeatherDisplay:10.37,2013-02-21 16:36:00,
2013-02-21 10:41:00,48.2,45.7,29.46,North,0,0.0,0.0,91,0.00,OVC,,0.22,WeatherDisplay:10.37,2013-02-21 16:41:00,
2013-02-21 10:46:00,48.4,45.9,29.46,North,0,0.0,0.0,91,0.00,OVC,,0.22,WeatherDisplay:10.37,2013-02-21 16:46:00,
2013-02-21 10:51:00,48.6,46.1,29.45,North,0,0.0,0.0,91,0.00,OVC,,0.22,WeatherDisplay:10.37,2013-02-21 16:51:00,
2013-02-21 10:56:00,48.7,46.2,29.45,North,0,0.0,0.0,91,0.00,OVC,,0.22,WeatherDisplay:10.37,2013-02-21 16:56:00,
2013-02-21 11:01:00,49.3,46.8,29.46,North,0,0.0,0.0,91,0.00,OVC,,0.22,WeatherDisplay:10.37,2013-02-21 17:01:00,
2013-02-21 11:06:00,49.6,46.8,29.45,North,0,0.0,0.0,90,0.00,OVC,,0.22,WeatherDisplay:10.37,2013-02-21 17:06:00,
2013-02-21 11:11:00,49.8,47.3,29.45,North,0,0.0,0.0,91,0.00,OVC,,0.22,WeatherDisplay:10.37,2013-02-21 17:11:00,
2013-02-21 11:16:00,50.0,47.2,29.45,North,0,0.0,0.0,90,0.00,OVC,,0.22,WeatherDisplay:10.37,2013-02-21 17:16:00,
2013-02-21 11:21:00,50.4,47.5,29.45,North,0,0.0,0.0,90,0.00,OVC,,0.22,WeatherDisplay:10.37,2013-02-21 17:21:00,
2013-02-21 11:26:00,50.7,47.9,29.46,North,0,0.0,0.0,90,0.00,OVC,,0.22,WeatherDisplay:10.37,2013-02-21 17:26:00,
2013-02-21 11:31:00,51.3,48.1,29.46,North,0,0.0,0.0,89,0.00,OVC,,0.22,WeatherDisplay:10.37,2013-02-21 17:31:00,
2013-02-21 11:36:00,51.6,48.5,29.47,North,0,0.0,0.0,89,0.00,OVC,,0.22,WeatherDisplay:10.37,2013-02-21 17:36:00,
2013-02-21 11:42:00,52.0,49.1,29.47,North,0,0.0,0.0,90,0.00,OVC,,0.22,WeatherDisplay:10.37,2013-02-21 17:42:00,
2013-02-21 11:47:00,52.5,49.7,29.48,North,0,0.0,0.0,90,0.00,OVC,,0.22,WeatherDisplay:10.37,2013-02-21 17:47:00,
2013-02-21 11:52:00,52.9,49.7,29.48,North,0,0.0,0.0,89,0.00,OVC,,0.22,WeatherDisplay:10.37,2013-02-21 17:52:00,
2013-02-21 11:57:00,53.4,50.3,29.48,North,0,0.0,0.0,89,0.00,OVC,,0.22,WeatherDisplay:10.37,2013-02-21 17:57:00,
2013-02-21 12:02:00,53.8,50.3,29.48,North,0,0.0,0.0,88,0.00,OVC,,0.22,WeatherDisplay:10.37,2013-02-21 18:02:00,
2013-02-21 12:07:00,54.1,50.0,29.48,North,0,0.0,0.0,86,0.00,OVC,,0.22,WeatherDisplay:10.37,2013-02-21 18:07:00,
2013-02-21 12:12:00,54.3,50.2,29.48,North,0,0.0,0.0,86,0.00,OVC,,0.22,WeatherDisplay:10.37,2013-02-21 18:12:00,
2013-02-21 12:17:00,54.7,50.3,29.48,North,0,0.0,0.0,85,0.00,OVC,,0.22,WeatherDisplay:10.37,2013-02-21 18:17:00,
2013-02-21 12:22:00,55.2,51.1,29.47,North,0,0.0,0.0,86,0.00,OVC,,0.22,WeatherDisplay:10.37,2013-02-21 18:22:00,
2013-02-21 12:27:00,55.8,51.3,29.46,North,0,0.0,0.0,85,0.00,OVC,,0.22,WeatherDisplay:10.37,2013-02-21 18:27:00,
2013-02-21 12:32:00,56.3,51.2,29.46,North,0,0.0,0.0,83,0.00,OVC,,0.22,WeatherDisplay:10.37,2013-02-21 18:32:00,
2013-02-21 12:37:00,56.8,52.1,29.46,North,0,0.0,0.0,84,0.00,OVC,,0.22,WeatherDisplay:10.37,2013-02-21 18:37:00,
2013-02-21 12:42:00,57.2,51.4,29.46,North,0,0.0,0.0,81,0.00,OVC,,0.22,WeatherDisplay:10.37,2013-02-21 18:42:00,
2013-02-21 12:47:00,57.6,50.0,29.45,North,0,0.0,0.0,76,0.00,OVC,,0.22,WeatherDisplay:10.37,2013-02-21 18:47:00,
2013-02-21 12:52:00,57.6,49.0,29.45,North,0,0.0,0.0,73,0.00,OVC,,0.22,WeatherDisplay:10.37,2013-02-21 18:52:00,
2013-02-21 12:57:00,57.7,48.8,29.45,North,0,0.0,0.0,72,0.00,OVC,,0.22,WeatherDisplay:10.37,2013-02-21 18:57:00,
2013-02-21 13:02:00,58.3,48.5,29.45,North,0,0.0,0.0,70,0.00,OVC,,0.22,WeatherDisplay:10.37,2013-02-21 19:02:00,
2013-02-21 13:07:00,58.5,48.3,29.45,North,0,0.0,0.0,69,0.00,OVC,,0.22,WeatherDisplay:10.37,2013-02-21 19:07:00,
2013-02-21 13:23:00,58.6,48.5,29.45,North,0,0.0,0.0,69,0.00,CLR,,0.22,WeatherDisplay:10.37,2013-02-21 19:23:00,
2013-02-21 13:28:00,58.6,48.5,29.45,North,0,0.0,0.0,69,0.00,RA,,0.22,WeatherDisplay:10.37,2013-02-21 19:28:00,
2013-02-21 13:33:00,58.6,48.5,29.45,North,0,0.0,0.0,69,0.00,RA,,0.22,WeatherDisplay:10.37,2013-02-21 19:33:00,
2013-02-21 13:38:00,58.6,48.5,29.45,North,0,0.0,0.0,69,0.00,OVC,,0.22,WeatherDisplay:10.37,2013-02-21 19:38:00,
2013-02-21 13:43:00,58.6,48.5,29.45,North,0,0.0,0.0,69,0.00,OVC,,0.22,WeatherDisplay:10.37,2013-02-21 19:43:00,
2013-02-21 13:48:00,58.6,48.5,29.45,North,0,0.0,0.0,69,0.00,OVC,,0.22,WeatherDisplay:10.37,2013-02-21 19:48:00,
2013-02-21 13:53:00,58.6,48.5,29.45,North,0,0.0,0.0,69,0.00,OVC,,0.22,WeatherDisplay:10.37,2013-02-21 19:53:00,
2013-02-21 13:58:00,58.6,48.5,29.45,North,0,0.0,0.0,69,0.00,OVC,,0.22,WeatherDisplay:10.37,2013-02-21 19:58:00,
2013-02-21 14:03:00,60.6,44.8,29.43,North,0,0.0,0.0,56,0.00,SCT,,0.22,WeatherDisplay:10.37,2013-02-21 20:03:00,
2013-02-21 14:08:00,60.6,43.9,29.43,North,0,0.0,0.0,54,0.00,SCT,,0.22,WeatherDisplay:10.37,2013-02-21 20:08:00,
2013-02-21 14:13:00,60.8,44.5,29.43,North,0,0.0,0.0,55,0.00,SCT,,0.22,WeatherDisplay:10.37,2013-02-21 20:13:00,
2013-02-21 14:18:00,60.8,44.5,29.43,North,0,0.0,0.0,55,0.00,SCT,,0.22,WeatherDisplay:10.37,2013-02-21 20:18:00,
2013-02-21 14:23:00,61.0,44.7,29.43,North,0,0.0,0.0,55,0.00,SCT,,0.22,WeatherDisplay:10.37,2013-02-21 20:23:00,
2013-02-21 14:28:00,61.0,44.7,29.43,North,0,0.0,0.0,55,0.00,SCT,,0.22,WeatherDisplay:10.37,2013-02-21 20:28:00,
2013-02-21 14:33:00,61.3,43.6,29.43,North,0,0.0,0.0,52,0.00,SCT,,0.22,WeatherDisplay:10.37,2013-02-21 20:33:00,
2013-02-21 14:38:00,61.5,43.7,29.43,North,0,0.0,0.0,52,0.00,SCT,,0.22,WeatherDisplay:10.37,2013-02-21 20:38:00,
2013-02-21 14:43:00,61.9,43.5,29.43,North,0,0.0,0.0,51,0.00,SCT,,0.22,WeatherDisplay:10.37,2013-02-21 20:43:00,
2013-02-21 14:48:00,62.1,42.7,29.43,North,0,0.0,0.0,49,0.00,SCT,,0.22,WeatherDisplay:10.37,2013-02-21 20:48:00,
2013-02-21 14:53:00,62.1,42.7,29.43,North,0,0.0,0.0,49,0.00,SCT,,0.22,WeatherDisplay:10.37,2013-02-21 20:53:00,
2013-02-21 14:58:00,62.2,41.7,29.43,North,0,0.0,0.0,47,0.00,SCT,,0.22,WeatherDisplay:10.37,2013-02-21 20:58:00,
2013-02-21 15:03:00,62.6,42.1,29.43,North,0,0.0,0.0,47,0.00,CLR,,0.22,WeatherDisplay:10.37,2013-02-21 21:03:00,
2013-02-21 15:08:00,62.8,42.2,29.43,North,0,0.0,0.0,47,0.00,CLR,,0.22,WeatherDisplay:10.37,2013-02-21 21:08:00,
2013-02-21 15:13:00,63.0,42.4,29.43,North,0,0.0,0.0,47,0.00,CLR,,0.22,WeatherDisplay:10.37,2013-02-21 21:13:00,
2013-02-21 15:18:00,63.0,42.4,29.43,North,0,0.0,0.0,47,0.00,CLR,,0.22,WeatherDisplay:10.37,2013-02-21 21:18:00,
2013-02-21 15:23:00,63.3,42.2,29.43,North,0,0.0,0.0,46,0.00,CLR,,0.22,WeatherDisplay:10.37,2013-02-21 21:23:00,
2013-02-21 15:28:00,63.5,41.8,29.43,North,0,0.0,0.0,45,0.00,CLR,,0.22,WeatherDisplay:10.37,2013-02-21 21:28:00,
2013-02-21 15:33:00,63.3,41.0,29.43,North,0,0.0,0.0,44,0.00,CLR,,0.22,WeatherDisplay:10.37,2013-02-21 21:33:00,
2013-02-21 15:38:00,63.5,41.2,29.43,North,0,0.0,0.0,44,0.00,CLR,,0.22,WeatherDisplay:10.37,2013-02-21 21:38:00,
2013-02-21 15:43:00,63.9,40.9,29.43,North,0,0.0,0.0,43,0.00,CLR,,0.22,WeatherDisplay:10.37,2013-02-21 21:43:00,
2013-02-21 15:48:00,63.9,40.9,29.44,North,0,0.0,0.0,43,0.00,CLR,,0.22,WeatherDisplay:10.37,2013-02-21 21:48:00,
2013-02-21 15:53:00,64.2,40.0,29.44,North,0,0.0,0.0,41,0.00,CLR,,0.22,WeatherDisplay:10.37,2013-02-21 21:53:00,
2013-02-21 15:58:00,64.2,40.0,29.44,North,0,0.0,0.0,41,0.00,CLR,,0.22,WeatherDisplay:10.37,2013-02-21 21:58:00,
2013-02-21 16:03:00,64.2,40.0,29.44,North,0,0.0,0.0,41,0.00,CLR,,0.22,WeatherDisplay:10.37,2013-02-21 22:03:00,
2013-02-21 16:08:00,64.4,40.2,29.44,North,0,0.0,0.0,41,0.00,CLR,,0.22,WeatherDisplay:10.37,2013-02-21 22:08:00,
2013-02-21 16:14:00,64.8,41.1,29.44,North,0,0.0,0.0,42,0.00,CLR,,0.22,WeatherDisplay:10.37,2013-02-21 22:14:00,
2013-02-21 16:19:00,65.1,42.1,29.44,North,0,0.0,0.0,43,0.00,CLR,,0.22,WeatherDisplay:10.37,2013-02-21 22:19:00,
2013-02-21 16:24:00,65.3,41.0,29.45,North,0,0.0,0.0,41,0.00,CLR,,0.22,WeatherDisplay:10.37,2013-02-21 22:24:00,
2013-02-21 16:29:00,65.5,41.1,29.45,North,0,0.0,0.0,41,0.00,CLR,,0.22,WeatherDisplay:10.37,2013-02-21 22:29:00,
2013-02-21 16:34:00,65.5,40.5,29.45,North,0,0.0,0.0,40,0.00,CLR,,0.22,WeatherDisplay:10.37,2013-02-21 22:34:00,
2013-02-21 16:39:00,65.3,40.3,29.45,North,0,0.0,0.0,40,0.00,CLR,,0.22,WeatherDisplay:10.37,2013-02-21 22:39:00,
2013-02-21 16:44:00,65.5,41.1,29.45,North,0,0.0,0.0,41,0.00,CLR,,0.22,WeatherDisplay:10.37,2013-02-21 22:44:00,
2013-02-21 16:49:00,65.5,40.5,29.46,North,0,0.0,0.0,40,0.00,CLR,,0.22,WeatherDisplay:10.37,2013-02-21 22:49:00,
2013-02-21 16:54:00,65.7,40.7,29.46,North,0,0.0,0.0,40,0.00,CLR,,0.22,WeatherDisplay:10.37,2013-02-21 22:54:00,
2013-02-21 16:59:00,65.1,40.2,29.46,North,0,0.0,0.0,40,0.00,CLR,,0.22,WeatherDisplay:10.37,2013-02-21 22:59:00,
2013-02-21 17:04:00,65.5,41.1,29.47,North,0,0.0,0.0,41,0.00,CLR,,0.22,WeatherDisplay:10.37,2013-02-21 23:04:00,
2013-02-21 17:09:00,65.5,40.5,29.46,North,0,0.0,0.0,40,0.00,CLR,,0.22,WeatherDisplay:10.37,2013-02-21 23:09:00,
2013-02-21 17:14:00,65.5,40.5,29.47,North,0,0.0,0.0,40,0.00,CLR,,0.22,WeatherDisplay:10.37,2013-02-21 23:14:00,
2013-02-21 17:19:00,65.5,39.9,29.47,North,0,0.0,0.0,39,0.00,CLR,,0.22,WeatherDisplay:10.37,2013-02-21 23:19:00,
2013-02-21 17:24:00,65.3,41.0,29.47,North,0,0.0,0.0,41,0.00,CLR,,0.22,WeatherDisplay:10.37,2013-02-21 23:24:00,
2013-02-21 17:29:00,65.1,40.8,29.47,North,0,0.0,0.0,41,0.00,CLR,,0.22,WeatherDisplay:10.37,2013-02-21 23:29:00,
2013-02-21 17:34:00,65.1,40.8,29.47,North,0,0.0,0.0,41,0.00,CLR,,0.22,WeatherDisplay:10.37,2013-02-21 23:34:00,
2013-02-21 17:39:00,65.1,40.8,29.48,North,0,0.0,0.0,41,0.00,CLR,,0.22,WeatherDisplay:10.37,2013-02-21 23:39:00,
2013-02-21 17:44:00,64.9,40.7,29.47,North,0,0.0,0.0,41,0.00,CLR,,0.22,WeatherDisplay:10.37,2013-02-21 23:44:00,
2013-02-21 17:49:00,64.8,41.7,29.48,North,0,0.0,0.0,43,0.00,CLR,,0.22,WeatherDisplay:10.37,2013-02-21 23:49:00,
2013-02-21 17:54:00,64.9,42.5,29.48,North,0,0.0,0.0,44,0.00,CLR,,0.22,WeatherDisplay:10.37,2013-02-21 23:54:00,
2013-02-21 17:59:00,64.6,42.2,29.48,North,0,0.0,0.0,44,0.00,CLR,,0.22,WeatherDisplay:10.37,2013-02-21 23:59:00,
2013-02-21 18:04:00,64.4,42.6,29.48,North,0,0.0,0.0,45,0.00,CLR,,0.22,WeatherDisplay:10.37,2013-02-22 00:04:00,
2013-02-21 18:09:00,64.4,43.2,29.48,North,0,0.0,0.0,46,0.00,CLR,,0.22,WeatherDisplay:10.37,2013-02-22 00:09:00,
2013-02-21 18:14:00,64.2,43.0,29.49,North,0,0.0,0.0,46,0.00,CLR,,0.22,WeatherDisplay:10.37,2013-02-22 00:14:00,
2013-02-21 18:19:00,64.0,43.4,29.49,North,0,0.0,0.0,47,0.00,CLR,,0.22,WeatherDisplay:10.37,2013-02-22 00:19:00,
2013-02-21 18:24:00,63.7,43.1,29.50,North,0,0.0,0.0,47,0.00,CLR,,0.22,WeatherDisplay:10.37,2013-02-22 00:24:00,
2013-02-21 18:29:00,63.3,42.7,29.50,North,0,0.0,0.0,47,0.00,CLR,,0.22,WeatherDisplay:10.37,2013-02-22 00:29:00,
2013-02-21 18:34:00,63.0,43.0,29.51,North,0,0.0,0.0,48,0.00,CLR,,0.22,WeatherDisplay:10.37,2013-02-22 00:34:00,
2013-02-21 18:39:00,61.9,42.5,29.51,North,0,0.0,0.0,49,0.00,CLR,,0.22,WeatherDisplay:10.37,2013-02-22 00:39:00,
2013-02-21 18:44:00,60.1,41.4,29.52,North,0,0.0,0.0,50,0.00,CLR,,0.22,WeatherDisplay:10.37,2013-02-22 00:44:00,
2013-02-21 18:49:00,59.7,41.6,29.52,North,0,0.0,0.0,51,0.00,CLR,,0.22,WeatherDisplay:10.37,2013-02-22 00:49:00,
2013-02-21 18:54:00,59.7,42.1,29.52,North,0,0.0,0.0,52,0.00,CLR,,0.22,WeatherDisplay:10.37,2013-02-22 00:54:00,
2013-02-21 18:59:00,59.7,42.1,29.53,North,0,0.0,0.0,52,0.00,CLR,,0.22,WeatherDisplay:10.37,2013-02-22 00:59:00,
2013-02-21 19:04:00,59.5,41.9,29.53,North,0,0.0,0.0,52,0.00,CLR,,0.22,WeatherDisplay:10.37,2013-02-22 01:04:00,
2013-02-21 19:09:00,59.2,42.0,29.53,North,0,0.0,0.0,53,0.00,CLR,,0.22,WeatherDisplay:10.37,2013-02-22 01:09:00,
2013-02-21 19:15:00,58.5,41.4,29.54,North,0,0.0,0.0,53,0.00,CLR,,0.22,WeatherDisplay:10.37,2013-02-22 01:15:00,
2013-02-21 19:20:00,57.9,40.9,29.54,North,0,0.0,0.0,53,0.00,CLR,,0.22,WeatherDisplay:10.37,2013-02-22 01:20:00,
2013-02-21 19:25:00,57.7,41.2,29.54,North,0,0.0,0.0,54,0.00,CLR,,0.22,WeatherDisplay:10.37,2013-02-22 01:25:00,
2013-02-21 19:30:00,57.7,40.7,29.54,North,0,0.0,0.0,53,0.00,CLR,,0.22,WeatherDisplay:10.37,2013-02-22 01:30:00,
2013-02-21 19:35:00,57.9,41.4,29.54,North,0,0.0,0.0,54,0.00,CLR,,0.22,WeatherDisplay:10.37,2013-02-22 01:35:00,
2013-02-21 19:40:00,57.7,41.2,29.54,North,0,0.0,0.0,54,0.00,CLR,,0.22,WeatherDisplay:10.37,2013-02-22 01:40:00,
2013-02-21 19:45:00,57.2,40.7,29.55,North,0,0.0,0.0,54,0.00,CLR,,0.22,WeatherDisplay:10.37,2013-02-22 01:45:00,
2013-02-21 19:50:00,56.8,40.4,29.55,North,0,0.0,0.0,54,0.00,CLR,,0.22,WeatherDisplay:10.37,2013-02-22 01:50:00,
2013-02-21 19:55:00,56.7,40.7,29.55,North,0,0.0,0.0,55,0.00,CLR,,0.22,WeatherDisplay:10.37,2013-02-22 01:55:00,
2013-02-21 20:00:00,56.3,40.3,29.55,North,0,0.0,0.0,55,0.00,CLR,,0.22,WeatherDisplay:10.37,2013-02-22 02:00:00,
2013-02-21 20:05:00,56.1,40.2,29.56,North,0,0.0,0.0,55,0.00,CLR,,0.22,WeatherDisplay:10.37,2013-02-22 02:05:00,
2013-02-21 20:10:00,56.1,40.2,29.56,North,0,0.0,0.0,55,0.00,CLR,,0.22,WeatherDisplay:10.37,2013-02-22 02:10:00,
2013-02-21 20:15:00,56.1,40.2,29.56,North,0,0.0,0.0,55,0.00,CLR,,0.22,WeatherDisplay:10.37,2013-02-22 02:15:00,
2013-02-21 20:20:00,55.9,40.0,29.56,North,0,0.0,0.0,55,0.00,CLR,,0.22,WeatherDisplay:10.37,2013-02-22 02:20:00,
2013-02-21 20:25:00,55.8,39.8,29.56,North,0,0.0,0.0,55,0.00,CLR,,0.22,WeatherDisplay:10.37,2013-02-22 02:25:00,
2013-02-21 20:30:00,55.6,39.7,29.56,North,0,0.0,0.0,55,0.00,CLR,,0.22,WeatherDisplay:10.37,2013-02-22 02:30:00,
2013-02-21 20:35:00,55.0,39.2,29.56,North,0,0.0,0.0,55,0.00,CLR,,0.22,WeatherDisplay:10.37,2013-02-22 02:35:00,
2013-02-21 20:40:00,54.9,39.0,29.57,North,0,0.0,0.0,55,0.00,CLR,,0.22,WeatherDisplay:10.37,2013-02-22 02:40:00,
2013-02-21 20:45:00,54.7,38.8,29.57,North,0,0.0,0.0,55,0.00,CLR,,0.22,WeatherDisplay:10.37,2013-02-22 02:45:00,
2013-02-21 20:50:00,54.5,38.7,29.57,North,0,0.0,0.0,55,0.00,CLR,,0.22,WeatherDisplay:10.37,2013-02-22 02:50:00,
2013-02-21 20:55:00,54.3,38.9,29.57,North,0,0.0,0.0,56,0.00,CLR,,0.22,WeatherDisplay:10.37,2013-02-22 02:55:00,
2013-02-21 21:00:00,54.1,38.8,29.58,North,0,0.0,0.0,56,0.00,CLR,,0.22,WeatherDisplay:10.37,2013-02-22 03:00:00,
2013-02-21 21:05:00,53.6,38.3,29.58,North,0,0.0,0.0,56,0.00,CLR,,0.22,WeatherDisplay:10.37,2013-02-22 03:05:00,
2013-02-21 21:10:00,53.4,38.1,29.58,North,0,0.0,0.0,56,0.00,CLR,,0.22,WeatherDisplay:10.37,2013-02-22 03:10:00,
2013-02-21 21:15:00,53.2,37.9,29.58,North,0,0.0,0.0,56,0.00,CLR,,0.22,WeatherDisplay:10.37,2013-02-22 03:15:00,
2013-02-21 21:20:00,52.9,38.1,29.58,North,0,0.0,0.0,57,0.00,CLR,,0.22,WeatherDisplay:10.37,2013-02-22 03:20:00,
2013-02-21 21:25:00,52.5,37.7,29.59,North,0,0.0,0.0,57,0.00,CLR,,0.22,WeatherDisplay:10.37,2013-02-22 03:25:00,
2013-02-21 21:30:00,52.0,37.7,29.60,North,0,0.0,0.0,58,0.00,CLR,,0.22,WeatherDisplay:10.37,2013-02-22 03:30:00,
2013-02-21 21:35:00,51.8,37.5,29.61,North,0,0.0,0.0,58,0.00,CLR,,0.22,WeatherDisplay:10.37,2013-02-22 03:35:00,
2013-02-21 21:40:00,52.9,38.1,29.61,North,0,0.0,0.0,57,0.00,CLR,,0.22,WeatherDisplay:10.37,2013-02-22 03:40:00,
2013-02-21 21:45:00,53.4,38.1,29.61,North,0,0.0,0.0,56,0.00,CLR,,0.22,WeatherDisplay:10.37,2013-02-22 03:45:00,
2013-02-21 21:50:00,53.8,38.4,29.62,North,0,0.0,0.0,56,0.00,CLR,,0.22,WeatherDisplay:10.37,2013-02-22 03:50:00,
2013-02-21 21:55:00,54.5,38.7,29.62,North,0,0.0,0.0,55,0.00,CLR,,0.22,WeatherDisplay:10.37,2013-02-22 03:55:00,
2013-02-21 22:00:00,54.3,39.4,29.63,North,0,0.0,0.0,57,0.00,CLR,,0.22,WeatherDisplay:10.37,2013-02-22 04:00:00,
2013-02-21 22:05:00,53.6,39.6,29.64,North,0,0.0,0.0,59,0.00,CLR,,0.22,WeatherDisplay:10.37,2013-02-22 04:05:00,
2013-02-21 22:10:00,52.5,39.9,29.64,North,0,0.0,0.0,62,0.00,CLR,,0.22,WeatherDisplay:10.37,2013-02-22 04:10:00,
2013-02-21 22:15:00,51.6,39.8,29.64,North,0,0.0,0.0,64,0.00,CLR,,0.22,WeatherDisplay:10.37,2013-02-22 04:15:00,
2013-02-21 22:20:00,50.9,39.9,29.64,North,0,0.0,0.0,66,0.00,CLR,,0.22,WeatherDisplay:10.37,2013-02-22 04:20:00,
2013-02-21 22:25:00,50.5,40.0,29.65,North,0,0.0,0.0,67,0.00,CLR,,0.22,WeatherDisplay:10.37,2013-02-22 04:25:00,
2013-02-21 22:30:00,50.2,39.6,29.65,North,0,0.0,0.0,67,0.00,CLR,,0.22,WeatherDisplay:10.37,2013-02-22 04:30:00,
2013-02-21 22:35:00,49.8,39.7,29.66,North,0,0.0,0.0,68,0.00,CLR,,0.22,WeatherDisplay:10.37,2013-02-22 04:35:00,
2013-02-21 22:40:00,49.5,39.3,29.67,North,0,0.0,0.0,68,0.00,CLR,,0.22,WeatherDisplay:10.37,2013-02-22 04:40:00,
2013-02-21 22:45:00,49.3,39.2,29.67,North,0,0.0,0.0,68,0.00,CLR,,0.22,WeatherDisplay:10.37,2013-02-22 04:45:00,
2013-02-21 22:50:00,49.3,39.2,29.68,North,0,0.0,0.0,68,0.00,CLR,,0.22,WeatherDisplay:10.37,2013-02-22 04:50:00,
2013-02-21 22:55:00,49.3,39.2,29.68,North,0,0.0,0.0,68,0.00,CLR,,0.22,WeatherDisplay:10.37,2013-02-22 04:55:00,
2013-02-21 23:00:00,49.1,39.0,29.68,North,0,0.0,0.0,68,0.00,CLR,,0.22,WeatherDisplay:10.37,2013-02-22 05:00:00,
2013-02-21 23:02:00,49.1,39.0,29.67,North,0,0.0,0.0,68,0.00,CLR,,0.22,WeatherDisplay:10.37,2013-02-22 05:02:00,
2013-02-21 23:07:00,48.6,38.8,29.67,North,0,0.0,0.0,69,0.00,CLR,,0.22,WeatherDisplay:10.37,2013-02-22 05:07:00,
2013-02-21 23:12:00,48.4,39.0,29.67,North,0,0.0,0.0,70,0.00,CLR,,0.22,WeatherDisplay:10.37,2013-02-22 05:12:00,
2013-02-21 23:17:00,48.2,38.9,29.67,North,0,0.0,0.0,70,0.00,CLR,,0.22,WeatherDisplay:10.37,2013-02-22 05:17:00,
2013-02-21 23:22:00,47.8,38.5,29.67,North,0,0.0,0.0,70,0.00,CLR,,0.22,WeatherDisplay:10.37,2013-02-22 05:22:00,
2013-02-21 23:27:00,47.8,38.9,29.67,North,0,0.0,0.0,71,0.00,CLR,,0.22,WeatherDisplay:10.37,2013-02-22 05:27:00,
2013-02-21 23:32:00,47.5,38.9,29.67,North,0,0.0,0.0,72,0.00,CLR,,0.22,WeatherDisplay:10.37,2013-02-22 05:32:00,
2013-02-21 23:37:00,47.1,38.6,29.66,North,0,0.0,0.0,72,0.00,CLR,,0.22,WeatherDisplay:10.37,2013-02-22 05:37:00,
2013-02-21 23:42:00,46.8,38.6,29.66,North,0,0.0,0.0,73,0.00,CLR,,0.22,WeatherDisplay:10.37,2013-02-22 05:42:00,
2013-02-21 23:47:00,46.6,38.4,29.66,North,0,0.0,0.0,73,0.00,CLR,,0.22,WeatherDisplay:10.37,2013-02-22 05:47:00,
2013-02-21 23:52:00,46.4,38.6,29.67,North,0,0.0,0.0,74,0.00,CLR,,0.22,WeatherDisplay:10.37,2013-02-22 05:52:00,
2013-02-21 23:57:00,46.4,38.2,29.66,North,0,0.0,0.0,73,0.00,CLR,,0.22,WeatherDisplay:10.37,2013-02-22 05:57:00,